Regional Weather Roundup
Issued by NWS Columbia, SC

Home | Current Version | Previous Version | Text Only | Print | Product List | Glossary On
Versions: 1 2 3 4 5 6 7 8 9 10 11 12 13 14 15 16 17 18 19 20 21 22 23 24 25 26 27 28 29 30 31 32 33 34 35 36 37 38 39 40 41 42 43 44 45 46 47 48 49 50
000
ASUS42 KCAE 231110
RWRCAE
REGIONAL WEATHER ROUNDUP
NATIONAL WEATHER SERVICE COLUMBIA SC
700 AM EDT WED MAY 23 2018

NOTE: "FAIR" INDICATES FEW OR NO CLOUDS BELOW 12,000 FEET WITH NO
SIGNIFICANT WEATHER AND/OR OBSTRUCTIONS TO VISIBILITY.

NOT ALL STATIONS ARE QUALITY CONTROLLED BY THE NATIONAL
WEATHER SERVICE. USE DATA WITH CAUTION...ESPECIALLY
DEWPOINT OBSERVATIONS.

SCZ001>056-GAZ040-063>065-077-231200-
...UPSTATE SOUTH CAROLINA...

CITY           SKY/WX    TMP DP  RH WIND       PRES   REMARKS
ANDERSON       FAIR      69  67  93 CALM      30.09R
LIBERTY        CLOUDY    67  67 100 CALM      30.10R FOG
SPARTANBURG    FAIR      68  64  88 CALM      30.09R
CLEMSON        CLOUDY    67  67 100 W3        30.11R
GREENVILLE     CLOUDY    69  67  93 W6        30.11R
GREENWOOD      MOCLDY    69  69 100 CALM      30.11R FOG
GREER          MOCLDY    67  67 100 SW7       30.10R
ROCK HILL      CLOUDY    69  68  96 SW5       30.09R
CHESTER        FAIR      68  68 100 CALM      30.11R
LAURENS        FAIR      68  66  94 SW3       30.10R


...CENTRAL SOUTH CAROLINA...

CITY           SKY/WX    TMP DP  RH WIND       PRES   REMARKS
COLUMBIA APT   CLOUDY    72  69  90 W3        30.09R
COLUMBIA OWENS CLOUDY    72  68  87 W5        30.10R
MCENTIRE ANGB  CLOUDY    71  71 100 CALM      30.10R
ORANGEBURG     CLOUDY    72  70  93 SW7       30.10R
SUMTER SHAW    CLOUDY    72  69  90 SW8       30.08R
NEWBERRY       FAIR      70  68  94 SW3       30.12R
AIKEN          CLOUDY    68  68 100 CALM      30.13R FOG
BARNWELL       CLOUDY    72  72 100 CALM      30.10R
MANNING        CLOUDY    70  68  94 CALM      30.10R
CAMDEN         CLOUDY    70  70 100 MISG      30.10R
LANCASTER      CLOUDY    68  68 100 SW3       30.10R
WINNSBORO      FAIR      68  66  94 SW3       30.10R


...EASTERN AND COASTAL SOUTH CAROLINA...

CITY           SKY/WX    TMP DP  RH WIND       PRES   REMARKS
MYRTLE BEACH   FAIR      73  71  93 SW5       30.12R
N MYRTLE BCH   FAIR      73  72  96 SW7       30.10R
CONWAY         FAIR      64  64 100 CALM      30.11R FOG
MARION         CLOUDY    70  68  94 SW5       30.10R FOG
HARTSVILLE     FAIR      68  68 100 CALM      30.09R FOG
FLORENCE       CLOUDY    72  70  93 SW5       30.09R FOG
CHARLESTON APT FAIR      73  72  96 S7        30.10R
MOUNT PLEASANT FAIR      75  72  88 S6        30.11R
WALTERBORO     FAIR      70  70 100 CALM      30.11R
BEAUFORT       FAIR      75  72  90 SW9       30.10


...EASTERN GEORGIA...

CITY           SKY/WX    TMP DP  RH WIND       PRES   REMARKS
AUGUSTA BUSH F FOG       70  70 100 CALM      30.09R VSB 1
AUGUSTA DANIEL CLOUDY    71  70  96 CALM      30.10R FOG
THOMSON        CLOUDY    68  67  96 CALM      30.15R
CLAXTON        FAIR      72  70  94 CALM      30.10R
SYLVANIA       FAIR      71  71 100 CALM      30.11R FOG
STATESBORO     FAIR      70  69  98 S3        30.10R
SAVANNAH       FAIR      71  69  93 S7        30.11R


...SOUTHERN NORTH CAROLINA...

CITY           SKY/WX    TMP DP  RH WIND       PRES   REMARKS
CHARLOTTE      CLOUDY    71  69  93 SW6       30.09R
MONROE         FAIR      69  69 100 SW7       30.08R
WADESBORO      PTSUNNY   70  67  91 CALM      30.08R
ROCKINGHAM     CLOUDY    69  69 100 S5        30.09R
RUTHERFORDTON  CLOUDY    66  66 100 S5        30.10R
ASHEVILLE      CLOUDY    65  63  93 N5        30.15R

$$



USA.gov is the U.S. government's official web portal to all federal, state and local government web resources and services.